Anderson, SC

4:08 PM EDT on June 26, 2017 (GMT -0400)
Anderson Regional

Weather History for KAND - January, 2014

Change the Weather History Date:

Friday, January 10, 2014

  Actual Average Record
Temperature  
Mean Temperature 42 °F -  
Max Temperature 48 °F 47 °F 79 °F (1949)
Min Temperature 37 °F 31 °F 4 °F (1970)
Degree Days  
Heating Degree Days 22    
Moisture  
Dew Point 44 °F    
Average Humidity 97    
Maximum Humidity 100    
Minimum Humidity 77    
Precipitation  
Precipitation 0.52 in - - ()
Sea Level Pressure  
Sea Level Pressure 30.21 in    
Wind  
Wind Speed 6 mph (NE)    
Max Wind Speed 10 mph    
Max Gust Speed -    
Visibility 4 miles    
Events Rain    
Averages and records for this station are not official NWS values.
T = Trace of Precipitation, MM = Missing Value Source: NWS Daily Summary

Daily Weather History Graph

Daily Weather History Graph

Search for Another Location

Airport or City:

Trip Planner

Search our weather history database for the weather conditions in past years. The results will help you decide how hot, cold, wet, or windy it might be!

Date:

Astronomy

Jan. 10, 2014 Rise Set
Actual Time 7:38 AM EST 5:39 PM EST
Civil Twilight 7:10 AM EST 6:06 PM EST
Nautical Twilight 6:39 AM EST 6:37 PM EST
Astronomical Twilight 6:09 AM EST 7:08 PM EST
Moon 1:38 PM EST (1/10) 2:48 AM EST (1/10)
Length of Visible Light 10h 56m
Length of Day
10h 01m
Waxing Gibbous, 75% of the Moon is Illuminated
Jan 10
Waxing Gibbous
Jan 15
Full
Jan 24
Last Quarter
Jan 30
New
Feb 6
First Quarter

Hourly Weather History & Observations

Time (EST) Temp. Windchill Dew Point Humidity Pressure Visibility Wind Dir Wind Speed Gust Speed Precip Events Conditions
12:56 AM 39.9 °F 37.8 °F 33.1 °F 77% 30.41 in 9.0 mi North 3.5 mph - 0.01 in Rain Light Rain
1:56 AM 37.9 °F 34.4 °F 35.1 °F 89% 30.38 in 7.0 mi NNE 4.6 mph - 0.02 in Rain Light Rain
2:56 AM 37.9 °F 32.7 °F 36.0 °F 93% 30.35 in 10.0 mi NNE 6.9 mph - 0.00 in   Overcast
3:13 AM 37.4 °F 32.8 °F 37.4 °F 100% 30.35 in 5.0 mi Variable 5.8 mph - 0.02 in Rain Rain
3:56 AM 39.0 °F 34.8 °F 37.9 °F 96% 30.34 in 3.0 mi NE 5.8 mph - 0.05 in Rain Light Rain
4:09 AM 39.2 °F 35.0 °F 37.4 °F 93% 30.32 in 3.0 mi ENE 5.8 mph - 0.02 in Rain Light Rain
4:24 AM 39.2 °F 33.0 °F 37.4 °F 93% 30.32 in 5.0 mi NE 9.2 mph - 0.03 in Rain Light Rain
4:32 AM 39.2 °F 34.2 °F 37.4 °F 93% 30.32 in 4.0 mi ENE 6.9 mph - 0.03 in Rain Light Rain
4:56 AM 39.0 °F 34.8 °F 37.9 °F 96% 30.32 in 5.0 mi NE 5.8 mph - 0.03 in Rain Light Rain
5:56 AM 39.0 °F 34.0 °F 39.0 °F 100% 30.31 in 4.0 mi NE 6.9 mph - 0.07 in Rain Rain
6:56 AM 39.9 °F 33.9 °F 39.0 °F 97% 30.30 in 10.0 mi ENE 9.2 mph - 0.06 in   Overcast
7:24 AM 39.2 °F 33.0 °F 39.2 °F 100% 30.29 in 10.0 mi ENE 9.2 mph - 0.00 in   Overcast
7:56 AM 39.9 °F 35.8 °F 39.0 °F 97% 30.31 in 9.0 mi NE 5.8 mph - 0.00 in   Overcast
8:56 AM 41.0 °F 36.4 °F 41.0 °F 100% 30.31 in 5.0 mi ENE 6.9 mph - 0.00 in   Overcast
9:01 AM 41.0 °F 35.8 °F 41.0 °F 100% 30.30 in 1.8 mi East 8.1 mph - 0.08 in Rain Heavy Rain
9:13 AM 42.8 °F 41.1 °F 41.0 °F 93% 30.30 in 3.0 mi North 3.5 mph - 0.12 in Rain Rain
9:56 AM 43.0 °F 38.2 °F 42.1 °F 97% 30.32 in 10.0 mi NNE 8.1 mph - 0.13 in   Overcast
10:23 AM 42.8 °F 41.1 °F 42.8 °F 100% 30.32 in 1.8 mi NNE 3.5 mph - 0.04 in Rain Rain
10:28 AM 42.8 °F 41.1 °F 42.8 °F 100% 30.32 in 3.0 mi NNW 3.5 mph - 0.05 in Rain Light Rain
10:56 AM 44.1 °F 40.1 °F 43.0 °F 96% 30.31 in 5.0 mi NE 6.9 mph - 0.05 in Rain Light Rain
11:07 AM 44.6 °F 40.2 °F 42.8 °F 93% 30.30 in 2.0 mi NE 8.1 mph - 0.00 in Rain Light Rain
11:16 AM 44.6 °F 41.4 °F 44.6 °F 100% 30.29 in 2.5 mi NE 5.8 mph - 0.01 in Rain Light Rain
11:26 AM 44.6 °F 40.2 °F 44.6 °F 100% 30.29 in 5.0 mi NE 8.1 mph - 0.01 in   Overcast
11:53 AM 44.6 °F 39.7 °F 44.6 °F 100% 30.27 in 5.0 mi NE 9.2 mph - 0.01 in Rain Light Rain
11:56 AM 45.0 °F 41.2 °F 44.1 °F 97% 30.27 in 7.0 mi NE 6.9 mph - 0.01 in Rain Light Rain
12:56 PM 46.0 °F 42.5 °F 45.0 °F 96% 30.22 in 2.5 mi NE 6.9 mph - 0.01 in Rain Light Rain
1:05 PM 46.4 °F 42.4 °F 44.6 °F 93% 30.20 in 5.0 mi NE 8.1 mph - 0.00 in Rain Light Rain
1:56 PM 46.9 °F - 46.0 °F 97% 30.18 in 9.0 mi ENE 10.4 mph - 0.01 in   Overcast
2:34 PM 46.4 °F 42.9 °F 46.4 °F 100% 30.16 in 2.0 mi ENE 6.9 mph - 0.00 in Rain Light Rain
2:56 PM 46.9 °F - 46.9 °F 100% 30.16 in 2.5 mi NE 6.9 mph - 0.01 in Rain Light Rain
3:11 PM 48.2 °F - 46.4 °F 93% 30.16 in 3.0 mi ENE 8.1 mph - 0.01 in Rain Light Rain
3:25 PM 48.2 °F - 46.4 °F 93% 30.16 in 2.5 mi ENE 5.8 mph - 0.02 in Rain Light Rain
3:41 PM 48.2 °F - 46.4 °F 93% 30.16 in 2.5 mi ENE 6.9 mph - 0.03 in Rain Light Rain
3:48 PM 48.2 °F - 48.2 °F 100% 30.15 in 3.0 mi ENE 6.9 mph - 0.03 in Rain Light Rain
3:56 PM 48.0 °F - 46.9 °F 96% 30.16 in 3.0 mi NE 5.8 mph - 0.04 in Rain Light Rain
4:39 PM 48.2 °F - 46.4 °F 93% 30.15 in 2.5 mi ENE 6.9 mph - 0.00 in Rain Light Rain
4:56 PM 48.0 °F - 46.9 °F 96% 30.16 in 2.0 mi ENE 6.9 mph - 0.00 in Rain Light Rain
5:08 PM 46.4 °F 45.2 °F 46.4 °F 100% 30.15 in 5.0 mi ENE 3.5 mph - 0.00 in   Overcast
5:33 PM 46.4 °F 43.5 °F 46.4 °F 100% 30.15 in 2.0 mi NE 5.8 mph - 0.00 in Rain Light Rain
5:56 PM 46.9 °F - 46.9 °F 100% 30.14 in 2.0 mi NE 3.5 mph - 0.01 in   Overcast
6:09 PM 46.4 °F 42.9 °F 46.4 °F 100% 30.13 in 3.0 mi ENE 6.9 mph - N/A   Overcast
6:56 PM 46.9 °F - 46.9 °F 100% 30.14 in 5.0 mi NE 5.8 mph - N/A   Overcast
7:36 PM 46.4 °F 43.5 °F 46.4 °F 100% 30.13 in 2.0 mi ENE 5.8 mph - N/A   Overcast
7:56 PM 46.9 °F - 46.9 °F 100% 30.13 in 2.0 mi ENE 6.9 mph - N/A   Overcast
8:13 PM 46.4 °F 43.5 °F 46.4 °F 100% 30.12 in 1.8 mi ENE 5.8 mph - N/A   Overcast
8:27 PM 46.4 °F 42.9 °F 46.4 °F 100% 30.12 in 2.0 mi ENE 6.9 mph - N/A   Overcast
8:40 PM 46.4 °F 43.5 °F 46.4 °F 100% 30.11 in 3.0 mi ENE 5.8 mph - N/A   Overcast
8:48 PM 46.4 °F 44.3 °F 46.4 °F 100% 30.12 in 2.0 mi ENE 4.6 mph - N/A   Overcast
8:56 PM 46.9 °F - 46.9 °F 100% 30.12 in 1.8 mi ENE 5.8 mph - N/A   Overcast
9:05 PM 46.4 °F 42.9 °F 46.4 °F 100% 30.11 in 2.0 mi ENE 6.9 mph - N/A   Overcast
9:19 PM 46.4 °F 43.5 °F 46.4 °F 100% 30.11 in 1.8 mi ENE 5.8 mph - N/A   Overcast
9:56 PM 46.9 °F - 46.9 °F 100% 30.10 in 1.8 mi East 8.1 mph - N/A   Overcast
10:23 PM 46.4 °F 42.9 °F 46.4 °F 100% 30.09 in 2.5 mi NE 6.9 mph - N/A   Overcast
10:38 PM 46.4 °F 43.5 °F 46.4 °F 100% 30.09 in 3.0 mi ENE 5.8 mph - N/A   Overcast
10:46 PM 46.4 °F 42.9 °F 46.4 °F 100% 30.08 in 2.5 mi NE 6.9 mph - N/A   Overcast
10:56 PM 46.9 °F - 46.9 °F 100% 30.08 in 2.5 mi NE 4.6 mph - N/A   Overcast
11:20 PM 46.4 °F 42.9 °F 46.4 °F 100% 30.06 in 1.8 mi East 6.9 mph - 0.01 in   Overcast
11:31 PM 46.4 °F 42.9 °F 46.4 °F 100% 30.05 in 2.0 mi ENE 6.9 mph - 0.01 in   Overcast
11:56 PM 46.9 °F - 46.9 °F 100% 30.05 in 2.5 mi East 4.6 mph - 0.01 in   Overcast